BEIDOU-3 M19

Last updated on Aug. 10, 2020, 5:34 a.m. UTC

1 44864U 19090A   20222.73642281 -.00000016  00000-0  00000+0 0  9993
2 44864  55.0911 134.3722 0015821 266.6884   8.5578  1.86231979  4427
UTC
Height (km)
Latitude
Longitude
Inclination
Orbital Period
UTC large
Height (km)
Speed (km/s)
/
Latitude / Longitude
Inclination (degrees)
Orbital Period (minutes)
Azimuth
Elevation
Range (km)
Doppler Factor
iOS Compass Heading
iOS Angle

Next 30 passes for location: Hong Kong

Rise time Rise Azimuth (degrees) Set time Set Azimuth (degrees) Duration Max altitude (degrees)

No matching passes for this satellites